Theta_e
321 321 322 322 324 330 332 332 338 338 339 341 337 336 337 338 338 338 338 337 335 329 326 326 324 328 329 329 328 328 328 328 329 329 329 325 319 319 321 318 319 322 322 325 326 324 320 323 328 326 326 324 323 323 322 322 322 322 321 321 320 319 319 319 320 321 319 318 319 319 317 317 318 318 316 315 316 316 316 315 314 314 315 315 316 317 317 318 317 315 313 313 313 313 312 310 310
324 326 326 326 327 331 334 333 338 339 338 340 336 337 340 338 337 337 335 332 332 328 325 324 324 325 327 330 329 328 329 329 328 328 325 320 318 318 319 317 317 320 322 324 326 324 320 324 327 326 325 324 323 322 322 322 322 321 321 321 321 320 319 319 318 319 318 318 318 318 318 316 316 316 315 315 315 316 316 315 314 314 314 314 317 317 318 318 316 315 313 313 313 313 311 310 309
326 327 326 327 328 331 333 334 338 338 337 337 332 337 343 340 336 335 333 331 329 326 324 324 325 325 326 329 327 325 327 326 324 325 323 318 319 319 318 316 315 318 320 322 326 324 322 324 327 326 325 323 323 322 322 322 321 321 321 321 321 320 319 318 317 318 317 317 317 316 317 315 315 316 315 314 314 315 314 314 313 314 313 314 317 317 318 317 316 314 313 313 313 313 311 310 309
325 326 327 327 329 331 333 335 337 336 335 333 330 335 340 338 334 333 333 331 328 324 324 324 325 324 324 324 322 320 321 323 322 321 321 317 317 317 316 315 313 316 318 320 324 325 323 325 326 325 325 323 323 322 321 322 321 321 320 320 320 319 319 318 317 317 316 317 317 316 315 315 315 316 315 313 314 314 312 313 313 313 312 313 315 315 317 317 315 313 313 313 313 313 311 310 309
324 326 327 327 330 332 332 335 336 335 335 332 331 334 332 331 332 331 330 329 327 322 322 322 322 321 321 321 320 319 319 322 321 318 318 315 314 316 315 315 314 315 318 319 322 325 324 325 325 325 324 323 322 321 321 321 321 320 320 319 319 318 318 318 317 317 316 317 317 316 315 315 315 314 314 313 314 313 311 312 312 312 312 313 314 314 316 316 314 313 313 313 313 313 311 310 308
324 326 324 326 329 330 332 334 333 332 334 332 332 334 330 327 328 328 325 327 328 324 322 322 319 319 319 319 319 321 319 319 319 316 315 314 314 315 315 315 316 316 316 318 320 324 325 326 325 324 324 323 322 321 321 321 321 321 320 319 319 318 318 318 317 317 317 317 316 316 316 315 314 314 313 313 313 312 311 312 312 312 312 313 314 313 315 316 314 313 313 312 313 313 311 309 308
324 325 324 325 326 328 332 333 331 329 330 330 331 329 326 324 323 323 321 321 326 325 324 323 319 317 318 318 317 318 315 314 315 313 312 312 312 313 314 314 315 315 316 317 319 322 324 326 325 324 324 323 322 321 321 321 321 321 320 319 319 318 318 318 317 317 316 316 316 315 316 316 314 314 313 313 313 312 311 311 311 311 311 312 313 313 314 314 313 312 312 312 312 312 310 309 308
322 324 326 326 326 329 331 331 330 328 328 328 325 321 321 322 320 320 320 318 319 320 321 323 319 316 318 318 316 314 312 311 311 311 310 311 311 311 313 314 314 315 315 317 318 320 324 326 325 324 323 323 322 321 321 321 321 321 319 319 319 318 318 318 317 316 315 316 316 315 315 315 314 314 313 312 312 311 311 310 311 311 311 312 313 313 313 313 313 312 312 312 312 313 311 309 308
321 322 324 324 325 327 327 328 327 327 326 323 318 316 318 320 319 319 319 316 315 315 316 319 318 318 318 318 316 312 309 309 309 309 310 310 310 311 312 312 313 314 315 316 318 321 324 325 325 324 323 323 321 321 321 320 321 321 319 318 319 318 318 318 317 316 315 315 316 315 315 315 315 314 313 313 311 311 310 310 310 311 311 312 312 312 313 313 312 312 312 312 311 313 312 310 308
321 320 321 324 324 322 322 324 325 325 321 316 313 313 314 316 319 319 317 315 315 316 314 313 315 315 314 315 314 309 307 307 307 308 309 309 309 310 311 311 312 314 315 316 317 321 324 324 324 324 323 322 321 321 321 320 320 321 320 319 319 318 318 318 317 316 316 316 315 314 314 315 315 314 313 313 311 311 310 310 309 309 310 311 312 312 312 312 312 312 312 311 311 312 311 310 308
323 320 319 321 321 320 319 319 320 320 316 313 313 312 311 314 316 316 316 315 314 316 314 313 314 312 312 314 311 307 306 306 306 307 308 309 309 309 310 310 312 314 314 316 317 320 323 323 324 323 322 322 321 321 320 320 320 320 320 319 319 318 318 318 318 316 316 316 315 314 314 314 314 314 313 312 312 311 310 309 309 309 310 310 311 312 312 312 312 312 311 311 311 311 311 311 308
323 323 322 320 320 320 319 317 316 316 315 312 313 312 311 313 314 314 315 314 313 314 312 311 311 311 311 311 309 306 305 305 305 306 307 309 309 309 310 310 312 313 314 316 317 319 322 322 322 323 322 322 321 321 320 320 320 320 320 319 319 318 318 318 318 316 316 316 316 315 314 314 314 313 312 312 312 311 310 309 309 309 309 310 310 311 312 312 312 312 311 311 311 311 311 311 309
321 323 322 320 320 320 318 316 316 316 314 312 312 312 311 312 313 313 313 312 313 311 308 307 308 309 308 307 307 305 304 304 304 305 306 308 309 310 310 310 311 312 313 315 317 318 319 321 322 322 321 321 321 321 320 320 320 320 320 319 318 318 318 318 317 316 316 316 316 315 315 314 313 313 312 312 312 311 310 309 309 309 309 309 310 311 312 312 312 311 311 310 311 311 310 310 309
319 321 319 319 319 318 318 317 315 315 313 312 312 312 312 312 312 312 311 310 309 307 306 305 306 308 306 305 306 303 303 304 304 305 306 307 309 310 311 311 311 312 313 314 315 317 318 319 321 321 321 321 321 320 320 320 319 319 318 318 318 318 318 317 317 316 316 316 315 315 315 315 313 313 313 312 312 311 310 309 309 309 309 309 310 310 310 312 312 311 310 309 309 309 309 309 309
317 318 317 317 317 316 317 317 315 314 312 312 313 313 312 312 313 312 310 310 307 306 305 305 305 306 304 304 304 303 303 303 303 304 305 306 307 309 309 309 310 310 312 313 314 315 316 317 318 320 320 321 320 320 319 319 318 317 316 318 318 317 317 317 316 316 316 316 315 315 315 314 313 313 312 312 312 312 311 309 309 309 309 310 310 310 309 310 311 310 309 308 308 308 308 309 308
316 316 316 316 317 315 315 314 313 314 312 311 311 312 312 311 313 312 310 310 306 305 304 303 304 304 303 302 303 302 303 302 302 303 304 305 305 306 306 306 306 307 309 310 311 311 313 315 316 317 318 319 320 320 319 318 317 316 316 316 317 317 317 316 316 316 316 315 315 315 314 314 313 312 312 311 311 312 311 309 309 308 309 310 310 310 309 309 309 309 308 308 307 307 308 309 307
315 315 316 315 315 314 313 312 312 312 311 310 309 311 313 311 311 311 309 308 305 304 304 303 303 303 302 302 302 302 302 301 301 302 303 303 304 304 304 304 304 305 305 306 306 306 308 310 312 314 315 316 317 318 319 318 318 317 316 315 316 316 317 316 316 315 315 315 315 315 315 314 314 312 312 311 311 311 311 309 309 308 308 310 310 310 309 309 309 309 308 308 307 307 307 307 307
313 314 316 315 314 313 312 311 310 310 309 309 308 309 310 309 308 309 308 307 305 304 303 302 301 301 301 301 301 301 301 300 300 300 301 302 302 302 302 303 303 303 303 303 303 303 304 305 306 308 311 313 314 315 316 317 318 318 317 316 314 315 316 316 316 315 315 315 315 315 315 314 314 313 312 312 311 311 311 310 309 309 308 309 310 309 309 309 309 309 308 308 307 307 306 306 305
313 313 314 314 313 312 311 310 308 308 308 308 308 308 307 307 307 307 308 306 305 304 303 302 300 300 300 300 300 300 300 299 298 298 299 300 301 301 301 301 301 302 302 302 302 302 302 303 304 305 307 309 310 312 313 315 316 317 318 317 316 315 316 316 316 315 314 315 315 315 315 314 314 314 312 312 311 311 311 310 309 309 308 309 310 309 309 308 309 308 308 308 307 306 306 305 304
312 313 314 314 311 311 310 308 308 308 308 308 308 307 305 305 305 307 307 305 304 302 302 301 299 299 298 298 299 299 298 298 297 297 297 298 299 299 299 299 300 300 300 300 300 300 300 301 302 303 304 306 307 309 311 312 313 315 317 317 317 316 316 316 316 316 315 314 315 315 315 314 314 313 312 312 312 311 311 311 309 308 308 308 309 308 308 308 308 308 308 307 307 306 305 304 303
312 313 313 312 309 309 310 307 306 307 307 308 308 307 305 304 304 305 306 306 304 301 300 300 299 298 297 297 298 298 297 297 297 296 296 296 297 297 297 298 298 298 298 299 299 299 299 299 299 301 302 304 305 306 307 309 310 311 313 315 316 316 316 316 316 315 315 313 313 315 315 315 314 313 312 312 312 311 311 311 310 308 307 307 308 308 307 308 308 308 307 306 306 305 304 304 303
312 313 311 310 308 309 309 307 306 307 308 308 309 308 305 303 303 303 305 305 303 301 300 299 298 297 297 297 297 297 297 297 297 296 296 296 296 296 296 296 296 296 296 297 297 297 297 298 298 298 300 301 303 303 305 306 307 308 309 311 313 315 316 316 315 315 315 314 313 314 315 315 314 313 312 312 312 312 311 310 309 308 307 307 308 308 307 307 307 307 307 306 306 305 304 303 303
313 313 310 309 308 308 308 307 307 307 308 309 308 306 304 303 302 301 302 302 301 300 300 299 299 298 297 297 297 296 296 296 296 296 296 296 295 295 296 295 295 295 295 295 296 295 295 296 297 297 298 299 300 302 303 304 305 307 308 309 310 312 314 315 315 315 314 314 313 313 314 314 314 313 312 312 312 312 311 310 310 308 307 307 307 307 307 306 306 306 307 306 305 305 304 303 302
314 313 309 308 308 307 307 307 307 307 307 308 308 305 304 303 302 301 300 300 300 300 300 299 299 298 297 297 297 296 296 296 296 296 295 295 295 295 295 295 295 295 295 295 295 295 294 295 295 295 296 297 298 299 301 302 303 304 305 306 307 309 311 313 314 314 314 313 313 313 313 314 314 313 312 312 312 312 311 310 310 308 307 307 307 307 306 306 306 306 306 306 305 304 304 303 301
315 313 309 308 308 306 307 307 306 307 307 307 307 305 304 303 301 300 299 299 299 299 299 299 298 297 297 296 296 296 295 295 295 295 295 295 295 294 294 294 295 295 294 294 294 294 294 294 294 294 294 295 296 297 299 300 301 302 303 304 305 306 307 310 311 313 314 313 313 313 313 314 314 313 312 312 312 312 311 310 310 309 308 307 307 307 306 305 305 305 305 305 305 304 303 303 301
315 313 309 306 306 306 307 307 306 306 306 306 305 304 303 302 301 300 299 299 299 298 298 298 297 297 297 296 296 295 295 295 295 294 295 294 294 294 294 294 294 294 294 294 294 294 294 294 294 294 294 294 295 296 297 298 300 301 301 302 303 304 305 306 308 310 312 313 313 313 313 313 313 313 312 313 312 312 311 310 309 310 308 307 307 307 306 305 305 304 305 304 304 304 303 303 301
313 312 311 307 306 307 307 307 307 306 306 305 305 304 303 302 303 302 299 299 299 299 298 298 298 297 296 296 295 295 294 294 294 294 294 294 294 294 294 294 294 294 294 294 294 293 293 293 293 293 293 293 294 294 295 296 297 299 300 301 301 302 303 304 305 307 308 310 311 312 312 312 312 312 312 312 312 311 311 310 310 310 309 308 307 306 306 305 305 304 304 304 304 304 303 303 301
311 311 311 308 306 307 307 307 307 307 306 305 305 304 303 303 303 301 299 299 299 298 298 298 298 297 297 296 295 295 294 294 294 294 294 294 293 294 293 293 293 293 293 293 293 293 293 293 293 293 293 293 293 293 294 294 294 296 298 299 300 301 301 302 303 304 305 307 308 309 311 311 312 312 312 311 311 311 311 310 309 309 309 308 307 306 305 305 305 305 304 304 304 303 303 302 301
310 310 312 311 307 306 307 306 306 306 306 305 305 305 304 303 302 300 299 299 299 298 298 298 298 297 297 296 295 295 294 294 294 293 293 293 293 293 293 293 293 292 293 293 293 293 293 293 293 293 293 292 292 293 294 293 293 294 296 297 299 300 300 301 302 303 303 304 305 306 308 309 310 311 312 311 311 310 310 310 309 308 308 308 307 306 305 304 304 305 304 304 304 303 302 301 300
311 311 313 312 309 309 308 306 306 306 306 306 307 308 307 303 300 299 299 299 298 298 298 298 297 297 297 296 295 295 294 294 293 293 293 293 292 292 292 292 292 292 292 292 292 292 292 293 293 293 292 292 292 292 293 293 293 293 294 295 296 297 299 300 300 301 302 303 303 304 305 306 306 308 310 311 310 310 310 310 309 308 308 308 307 306 304 303 304 305 305 304 303 302 301 300 299
311 312 313 311 310 310 308 308 307 306 307 306 307 310 307 302 299 299 299 299 299 298 298 297 297 297 297 296 295 295 294 294 293 293 293 292 292 292 292 292 291 291 291 291 291 291 291 292 292 292 292 292 292 292 292 293 293 293 293 294 294 295 297 298 299 299 300 301 302 303 303 304 304 305 307 309 310 310 310 310 309 309 308 307 306 305 305 303 303 305 305 304 303 301 300 298 297
310 312 313 310 307 308 308 308 307 306 307 305 307 310 308 302 299 299 298 299 299 298 298 297 297 297 296 296 295 295 294 294 293 293 292 292 292 291 291 291 291 291 290 290 291 291 291 291 291 292 292 292 292 292 292 292 293 292 292 293 294 294 294 296 298 299 299 300 300 301 302 302 303 303 304 306 308 308 309 309 309 309 308 307 306 305 304 302 303 304 304 303 302 300 299 297 296
309 311 310 308 307 308 308 309 308 308 307 306 306 308 308 303 299 298 298 298 298 298 298 297 297 296 296 295 295 295 294 294 293 293 292 292 291 291 291 291 290 290 290 290 290 290 290 291 291 291 291 291 292 292 291 292 292 292 292 292 293 294 294 294 296 298 299 299 299 300 300 301 302 302 303 304 305 306 307 307 308 308 308 307 306 304 303 302 302 303 302 302 301 299 298 297 295
309 310 308 307 308 309 309 309 309 310 309 307 305 305 306 303 299 298 298 298 298 298 298 297 297 296 296 295 295 294 294 294 293 293 292 292 292 291 291 291 290 290 290 289 289 289 289 290 290 290 290 291 292 292 291 291 292 292 292 292 293 293 293 294 294 296 297 298 298 299 299 300 300 301 301 302 303 304 305 306 306 307 307 307 306 304 303 301 301 301 301 301 300 299 297 296 294
309 309 308 308 309 309 308 307 309 311 309 307 305 304 305 302 298 298 298 298 298 298 298 297 297 296 296 295 294 294 294 294 293 293 292 292 292 291 291 290 290 290 289 289 289 289 289 289 289 289 290 290 291 291 291 291 291 291 291 292 292 292 292 293 294 295 295 296 297 298 298 299 299 299 300 300 301 302 302 303 304 305 305 306 305 304 303 301 300 300 300 299 299 298 297 296 294
309 309 309 310 308 306 306 304 308 311 309 306 305 304 304 302 300 298 298 298 298 298 298 297 296 296 295 295 294 294 293 293 293 293 293 292 291 291 291 290 290 290 289 289 289 288 288 288 288 289 289 290 291 291 291 291 291 291 291 291 291 291 291 292 293 294 294 294 295 296 297 297 298 298 299 299 299 300 301 301 302 302 303 304 304 304 302 301 300 299 299 298 298 297 296 295 294
309 311 311 310 306 304 303 302 306 311 309 307 305 304 304 304 302 299 298 298 297 298 297 297 296 295 295 294 294 294 293 294 293 293 292 292 291 291 290 290 290 289 289 289 288 288 288 288 288 288 289 289 290 290 291 291 291 291 291 290 290 290 290 291 291 292 293 294 295 296 296 296 296 296 297 298 298 298 299 300 301 301 301 302 303 303 302 301 300 299 298 297 297 296 295 294 293
310 313 310 306 304 303 301 302 306 309 308 307 305 305 305 305 303 299 298 297 297 297 297 296 296 295 295 294 294 294 293 294 293 292 292 292 291 290 290 290 289 289 289 288 288 288 288 288 288 288 288 289 289 290 290 290 290 290 290 290 290 290 290 290 290 291 291 292 293 294 295 294 294 295 295 296 297 297 298 298 299 300 300 300 301 302 302 301 300 299 298 297 296 295 294 293 293
310 311 308 304 303 302 301 304 306 305 305 305 304 304 304 305 305 300 298 298 297 298 297 296 295 294 294 294 294 294 293 293 293 292 292 291 291 290 290 290 289 289 289 288 288 288 288 288 288 288 288 288 289 290 290 290 290 290 289 289 289 289 289 290 290 290 290 291 292 293 294 295 295 294 294 294 295 295 296 297 297 298 299 299 300 300 301 301 300 299 298 297 296 295 294 293 292
309 309 305 302 302 302 302 302 303 303 304 304 304 305 305 305 305 301 298 299 297 297 296 296 295 295 294 294 294 294 293 293 292 292 291 291 291 290 290 290 289 289 288 288 288 288 288 288 288 288 288 288 289 289 289 289 289 289 289 289 289 289 289 289 289 289 290 290 291 292 293 295 295 294 294 293 293 294 294 295 296 296 297 298 298 299 299 300 300 299 298 297 296 294 294 293 292
307 308 304 302 301 301 301 301 302 303 305 307 308 306 305 306 305 301 299 299 297 296 296 295 295 295 295 294 294 294 293 292 291 290 290 290 290 290 290 289 289 288 288 288 288 287 288 288 288 288 288 288 288 289 289 289 289 288 288 288 288 288 289 289 289 289 289 289 290 291 292 293 294 294 294 294 293 293 293 293 294 294 295 296 297 297 298 298 299 299 298 297 296 295 294 293 292
304 306 304 301 300 301 302 302 303 303 303 308 310 306 305 305 305 302 299 297 296 296 296 296 295 295 295 294 293 293 292 291 290 289 289 289 289 288 288 288 288 287 287 288 287 287 288 288 288 288 288 288 288 289 289 289 288 288 288 288 288 288 288 288 289 289 289 289 289 290 290 290 291 292 293 293 293 292 292 292 293 293 294 294 295 296 296 297 297 298 297 297 296 295 294 293 292
303 306 304 302 302 302 303 303 304 304 303 305 307 306 305 303 301 302 299 297 297 296 296 296 295 294 294 293 293 292 291 290 289 288 288 287 287 287 287 287 287 287 287 287 287 287 287 287 287 287 287 288 288 288 289 289 288 288 287 287 287 288 288 288 288 288 289 289 289 289 290 290 290 290 291 291 292 292 293 292 292 292 292 293 293 294 295 295 296 296 296 296 296 295 295 293 292
304 306 305 303 303 303 303 304 304 304 303 304 305 305 302 299 300 303 300 298 297 297 297 296 295 294 293 292 291 290 289 289 288 288 287 287 287 286 286 287 287 287 287 287 287 287 287 287 287 287 287 287 288 288 289 288 288 287 287 287 287 287 288 288 288 288 288 289 289 289 289 289 290 290 290 291 291 292 292 292 292 292 292 292 292 293 293 294 295 295 295 295 295 295 294 294 293
304 306 305 303 303 302 303 304 304 304 304 305 304 301 298 297 299 301 301 300 298 297 297 296 294 293 292 291 290 289 289 289 288 287 287 286 286 286 286 287 287 287 287 287 287 287 287 287 287 287 287 287 288 288 288 288 288 287 287 287 287 287 287 287 287 288 288 288 288 289 289 289 290 290 290 290 290 291 291 292 292 292 292 292 292 292 292 293 293 294 294 294 294 294 294 294 293
305 306 305 303 303 302 303 305 305 305 305 305 302 298 297 298 297 299 302 302 299 298 296 294 293 292 292 291 290 289 288 288 287 287 287 286 286 286 286 287 287 287 287 287 287 287 287 287 287 287 287 287 287 287 288 288 287 287 286 286 286 287 287 287 287 287 287 288 288 288 289 289 289 290 290 290 290 290 291 291 292 292 292 292 292 292 292 292 292 293 293 293 293 293 293 293 293
307 305 302 301 301 301 302 305 304 304 304 303 299 297 298 298 298 300 301 300 298 296 294 293 292 292 292 290 289 288 288 287 286 286 286 286 286 286 286 286 286 286 286 287 287 287 287 287 287 287 287 287 287 287 287 288 287 286 286 286 286 286 287 287 287 287 287 287 288 288 288 289 289 289 290 290 290 290 290 290 291 291 291 291 291 292 292 292 292 292 292 292 292 293 293 293 293
306 303 300 298 299 299 300 300 301 301 300 299 298 297 298 298 299 300 298 296 296 295 293 292 292 291 291 289 288 288 288 286 286 285 285 285 285 286 286 286 286 286 286 286 286 286 286 286 286 286 286 286 286 286 287 287 286 286 285 285 286 286 286 287 287 287 287 287 288 288 288 288 288 289 289 290 290 290 290 290 290 291 291 291 291 291 291 292 292 292 292 292 292 292 292 292 292
302 299 299 298 297 298 298 298 299 299 298 298 297 297 297 297 298 299 296 295 295 294 293 292 291 290 289 288 287 287 287 286 285 285 285 285 285 285 285 285 286 286 286 286 286 286 286 286 286 285 285 285 285 285 286 286 285 285 285 285 285 285 286 286 287 287 287 287 287 288 288 288 288 288 289 289 290 290 290 290 290 290 290 290 290 291 291 291 291 292 292 292 292 292 292 292 292
299 298 298 298 297 298 298 297 298 298 297 297 296 297 297 297 298 298 296 295 294 294 294 292 291 289 288 287 287 286 286 285 285 285 285 285 285 285 285 285 285 285 285 286 286 286 285 286 285 285 285 285 285 285 285 285 284 284 284 284 285 285 286 286 286 287 287 287 287 287 287 288 288 288 288 289 289 289 290 290 290 290 290 290 290 290 290 290 291 291 291 291 291 291 292 292 291
299 299 299 298 298 297 298 297 298 298 297 296 296 297 297 297 298 297 295 295 295 294 293 291 289 288 287 287 286 286 285 285 285 285 285 285 285 285 285 285 285 285 285 285 285 285 285 285 285 285 285 285 285 284 284 284 284 284 284 284 284 285 285 286 286 286 286 287 287 287 287 287 288 288 288 288 288 289 289 290 290 290 290 290 290 290 289 290 290 290 290 291 291 291 291 291 291
300 299 299 299 297 297 298 298 297 297 296 295 295 296 296 296 297 297 296 296 295 293 291 289 288 287 286 286 285 285 285 285 285 285 284 284 284 285 285 285 285 285 285 285 285 285 284 284 284 284 284 284 284 284 283 283 283 283 283 284 284 284 285 285 285 286 286 286 287 287 287 287 287 288 288 288 288 288 289 289 289 290 290 290 290 290 290 289 289 290 290 290 290 290 290 290 290
299 299 298 298 297 296 297 297 296 295 295 295 295 296 295 295 296 296 295 294 292 290 289 288 287 286 286 285 285 284 284 284 284 284 284 284 284 284 284 284 284 285 285 285 284 284 284 284 284 284 284 283 283 282 282 282 282 282 282 282 283 283 284 284 285 285 286 286 286 286 287 287 287 287 287 288 288 288 288 288 289 289 289 290 290 290 290 290 289 289 290 290 290 290 290 290 290
299 298 298 298 299 297 296 296 294 294 294 295 295 295 294 294 295 295 293 291 290 289 288 287 286 286 285 285 284 284 284 284 284 284 284 284 284 284 284 284 284 285 284 284 283 283 283 283 283 283 283 282 281 281 281 281 281 281 281 281 281 282 282 283 285 285 285 286 286 286 286 287 287 287 287 287 288 287 288 288 288 288 289 289 289 289 290 290 289 289 289 290 290 290 290 290 290
300 299 298 298 299 299 297 294 294 294 295 294 293 293 293 293 294 293 291 289 288 287 286 286 285 285 285 284 284 284 284 284 283 283 283 284 284 284 284 284 284 284 284 283 283 283 283 283 283 283 282 281 280 280 280 280 280 280 280 280 280 281 281 282 284 285 285 286 286 286 286 286 287 287 287 287 287 287 287 287 288 288 288 289 289 289 289 289 289 289 289 289 289 289 289 289 289
300 299 298 297 297 298 297 295 294 294 293 292 292 292 292 293 293 291 289 288 287 286 286 285 285 285 284 284 284 283 283 283 283 283 283 283 283 283 284 284 284 284 283 283 282 282 283 283 283 282 281 280 280 279 279 279 279 279 279 279 280 280 281 282 283 284 285 285 285 285 286 286 286 286 287 287 287 287 287 287 287 288 288 288 288 289 289 289 289 289 288 288 288 288 288 288 289
298 298 299 297 297 297 297 295 294 294 292 291 291 291 291 292 292 290 289 288 286 286 285 285 284 284 284 284 283 283 283 283 283 283 283 283 283 283 283 284 284 283 283 282 282 282 283 283 282 281 280 279 279 279 278 278 278 278 278 279 280 279 280 282 283 283 284 284 284 285 286 286 286 286 286 287 287 287 287 287 287 287 287 288 288 288 289 289 289 289 288 288 288 288 288 288 288
297 298 298 297 296 297 297 295 294 293 292 291 291 291 291 291 290 289 288 287 286 285 285 284 284 284 283 283 283 283 283 282 282 283 283 283 283 283 283 283 283 283 282 282 281 282 282 282 281 280 279 279 278 278 277 277 277 278 279 279 278 278 279 281 283 283 284 284 284 285 285 286 286 286 286 286 287 287 287 287 287 287 287 287 288 288 288 289 289 289 288 288 288 287 288 288 288
Wind_Speed
2 1 2 3 5 6 5 1 2 2 2 5 5 6 3 1 4 5 6 5 0 3 3 2 3 1 1 1 2 3 4 4 3 3 2 4 6 5 2 1 1 3 7 10 11 13 19 23 21 19 18 17 16 15 14 14 14 14 14 14 14 14 14 14 14 15 13 13 13 12 11 11 12 11 10 10 10 10 10 9 9 9 10 10 11 11 10 11 11 9 8 7 8 8 8 8 7
2 2 5 5 7 7 2 1 3 2 3 5 5 4 4 6 4 3 3 4 3 1 1 2 2 2 1 1 3 3 4 5 4 4 1 8 9 7 4 4 6 2 4 7 9 12 19 22 20 19 17 16 16 15 14 14 14 14 14 14 14 14 15 14 14 15 14 14 13 13 12 11 11 12 11 11 11 11 11 10 9 10 9 11 12 11 11 12 10 9 8 8 9 9 8 8 7
3 4 7 6 7 5 1 2 3 3 4 5 4 1 3 3 1 4 4 4 3 2 1 2 2 1 0 1 2 2 4 3 3 4 4 12 8 9 7 8 10 2 2 5 8 10 17 20 20 18 16 16 16 15 14 14 14 14 14 14 14 14 15 15 14 14 15 14 13 14 13 11 11 12 12 11 11 11 11 10 10 10 10 11 11 11 11 12 10 9 9 9 10 10 9 8 7
4 4 8 6 4 3 2 2 4 4 5 5 3 1 2 2 2 4 4 3 4 4 2 3 0 0 2 2 4 3 3 2 7 7 5 15 13 10 10 12 13 4 2 4 6 10 14 18 19 17 16 15 15 15 14 14 14 13 14 14 14 13 15 15 14 14 15 14 13 14 13 12 12 12 12 12 12 11 11 11 10 10 11 11 10 10 11 11 10 10 10 10 11 10 9 8 7
5 4 8 6 2 1 1 2 3 4 6 5 4 1 4 5 6 4 5 3 6 5 3 2 0 1 2 2 2 2 4 2 8 14 9 13 16 13 12 13 12 5 2 3 5 9 11 15 19 16 15 15 14 14 13 13 13 13 14 14 14 14 15 15 14 14 15 14 13 14 13 12 13 12 12 12 12 12 11 11 11 11 12 12 11 11 12 12 10 10 11 11 11 11 9 8 7
6 7 7 5 3 1 1 3 4 5 6 6 5 1 5 6 6 5 5 4 6 5 2 3 2 1 3 1 1 1 8 6 8 15 13 14 16 15 15 13 9 5 3 3 5 8 10 15 19 18 16 15 15 14 13 13 13 13 14 14 14 14 15 15 14 14 15 14 14 14 13 14 14 13 13 13 13 12 12 12 12 12 12 12 12 12 12 12 11 11 11 11 11 10 9 8 7
8 6 5 4 3 1 3 5 5 5 3 3 3 4 7 7 6 6 5 4 4 3 1 4 4 0 1 2 1 10 22 17 12 16 16 15 15 15 16 13 10 8 5 3 4 7 10 15 19 19 17 16 15 15 14 13 13 13 14 14 14 14 15 15 15 15 15 14 15 15 15 15 14 14 14 14 13 13 13 12 12 12 13 12 13 13 13 12 12 12 11 11 11 11 10 8 7
8 3 1 2 3 2 4 5 6 6 4 2 5 9 8 7 5 5 5 5 2 3 3 5 4 2 2 5 2 14 29 25 18 18 19 17 16 14 14 13 11 9 6 4 4 7 8 13 18 19 18 16 16 15 15 14 14 14 14 14 14 15 15 15 15 14 15 15 15 16 16 15 15 15 15 15 14 14 14 13 13 13 13 13 13 13 13 13 12 12 12 12 11 11 11 9 8
6 3 0 1 3 3 4 5 6 8 6 2 10 10 8 7 5 5 6 6 6 5 7 4 3 3 3 5 3 12 23 28 23 20 21 18 17 14 13 13 11 11 8 4 3 6 6 10 15 17 17 16 16 16 15 15 15 15 15 14 15 15 15 15 15 15 15 16 16 16 16 15 16 16 15 16 15 15 15 15 14 14 14 14 14 14 13 13 13 12 12 12 12 12 11 10 9
4 3 1 1 3 4 5 6 5 5 1 9 10 9 8 7 5 7 7 7 8 4 9 9 4 6 5 3 5 10 18 30 31 27 25 19 17 15 13 13 11 11 10 5 3 3 5 9 12 16 17 16 16 16 15 15 15 15 15 15 15 16 16 16 15 15 15 15 16 16 16 16 17 17 17 17 16 16 16 15 15 15 15 15 14 15 14 13 13 13 13 13 12 13 12 11 9
2 3 1 2 3 4 5 4 3 2 8 10 8 10 8 7 6 7 7 7 8 6 9 8 5 5 6 1 5 13 27 35 34 31 28 19 17 17 14 13 12 10 10 8 3 2 3 6 11 14 17 16 16 16 15 15 15 15 15 15 15 16 16 16 16 15 15 16 16 16 17 17 18 18 18 17 17 17 17 16 16 16 16 15 15 16 15 14 14 13 14 14 13 13 13 12 11
2 2 1 2 3 4 3 3 4 4 8 8 7 8 6 6 8 7 7 6 7 9 11 9 6 6 5 3 3 15 33 36 32 29 27 19 15 15 14 12 11 10 10 8 4 2 3 4 9 14 16 16 16 16 16 16 16 16 16 15 15 16 16 16 16 16 16 16 17 17 17 17 18 18 18 18 18 18 17 17 17 16 16 16 16 16 16 16 15 15 15 15 15 14 13 14 13
3 3 1 3 4 4 4 3 4 4 5 6 6 7 7 6 8 7 6 6 10 10 11 12 9 7 6 5 4 13 24 30 31 27 24 20 13 10 13 12 9 10 10 7 5 3 3 3 7 13 15 16 16 16 16 16 16 16 17 16 16 17 17 16 16 16 17 18 18 18 18 18 19 18 19 18 18 18 18 18 17 17 17 17 17 17 17 17 16 16 16 15 16 15 13 14 15
2 3 2 3 4 4 4 2 2 4 2 4 3 5 7 6 8 7 5 7 13 9 9 14 11 6 7 7 7 10 17 27 30 25 21 20 14 8 10 12 8 8 9 7 5 4 3 3 5 10 12 14 15 15 16 16 16 17 16 16 17 17 17 17 18 17 18 19 19 19 20 20 21 20 20 19 19 19 19 18 18 18 18 17 17 18 17 17 17 16 17 16 16 16 14 14 16
2 3 2 3 4 4 2 2 3 2 2 4 1 4 7 7 8 6 6 7 10 9 10 16 12 4 6 7 6 9 18 28 29 25 20 19 19 15 15 17 14 11 10 9 7 4 4 5 5 6 9 12 13 14 15 16 17 17 17 17 17 17 18 18 18 18 19 20 20 20 21 20 20 21 21 20 20 20 20 19 19 19 18 18 18 18 18 18 18 17 17 17 16 17 15 14 15
0 3 1 3 5 3 3 4 5 2 2 5 4 6 6 7 7 5 6 7 9 10 11 13 11 7 7 7 7 11 18 24 24 23 21 21 22 21 23 25 24 22 18 17 15 12 8 6 6 6 7 9 11 12 13 15 16 18 18 19 19 18 19 19 19 19 19 20 21 20 21 21 19 21 22 20 22 21 21 22 20 20 20 19 19 18 19 19 18 18 17 17 17 17 16 14 14
0 2 2 4 3 1 3 4 4 3 5 8 8 7 5 4 5 4 8 11 11 11 11 10 10 10 8 8 10 13 17 20 23 23 22 22 22 22 25 27 27 26 25 25 25 24 19 15 10 8 8 8 9 11 12 13 14 16 18 19 20 20 20 21 21 21 21 20 22 21 20 23 20 21 24 20 22 22 21 25 22 21 22 20 20 19 19 19 19 18 18 18 18 17 16 15 16
0 2 3 2 2 3 3 4 4 3 5 7 7 6 6 3 4 2 6 10 10 10 10 9 10 10 10 11 12 14 17 20 23 23 22 21 21 21 21 24 25 25 26 27 28 28 26 24 21 15 11 10 10 10 12 13 13 14 15 18 20 22 22 22 22 22 24 22 23 23 21 24 23 20 23 22 23 24 21 24 24 23 23 22 21 21 20 20 19 19 19 19 18 19 19 16 18
2 3 3 1 3 2 2 5 5 3 4 5 5 7 7 4 4 4 3 7 8 9 7 7 9 9 10 12 14 15 17 19 22 23 22 20 20 19 18 20 22 24 26 26 27 28 28 26 24 23 18 13 12 11 11 11 12 12 13 15 17 21 22 23 23 23 25 24 24 25 22 24 26 23 23 24 25 26 23 23 26 25 25 25 23 23 22 21 21 20 20 20 19 20 21 19 18
2 2 2 2 3 2 5 6 4 3 3 5 3 7 8 5 4 3 5 9 8 7 5 5 7 8 8 10 12 15 16 18 21 22 22 21 21 19 19 20 21 22 23 23 25 27 29 28 26 24 22 17 14 13 12 12 11 11 12 14 15 17 20 22 24 25 25 26 25 25 24 24 26 25 24 25 26 28 26 24 27 28 28 26 23 24 25 23 23 23 22 22 20 21 21 21 19
1 1 1 3 3 1 5 5 4 3 3 4 3 6 8 6 5 4 4 7 6 6 5 5 6 7 7 8 10 13 14 15 18 20 21 21 21 20 20 20 20 21 21 21 24 26 27 28 28 27 24 20 17 15 13 13 14 13 11 13 15 17 19 21 23 24 25 26 26 26 26 25 26 26 26 27 27 29 28 26 29 32 30 27 24 25 28 26 25 24 24 24 23 22 21 21 20
1 1 2 3 3 2 5 6 4 3 3 2 2 3 6 6 7 7 5 5 4 5 5 6 6 7 7 7 9 11 12 13 15 18 19 20 21 20 20 20 20 20 21 22 22 24 26 26 27 28 27 24 21 19 16 13 15 16 14 13 14 16 18 20 22 23 25 26 28 27 27 27 27 28 29 30 29 31 30 27 30 34 32 30 28 28 30 29 28 27 26 26 26 25 24 23 23
1 1 2 2 3 2 4 6 1 3 2 2 2 4 5 7 7 6 8 7 6 5 6 6 6 7 8 8 9 9 10 11 13 16 17 19 20 20 20 19 19 20 21 21 21 23 25 25 25 26 27 26 25 23 19 16 13 14 15 16 16 16 17 19 21 22 24 26 28 29 28 28 30 31 31 30 30 31 32 29 29 33 33 34 33 30 30 31 31 29 27 28 27 26 26 25 24
2 1 2 2 2 2 4 4 1 1 2 2 3 5 5 7 6 5 8 7 6 6 5 6 7 8 9 8 7 8 10 11 13 15 16 17 19 19 19 18 18 19 20 21 21 21 24 25 24 25 26 26 26 25 22 20 18 16 14 15 17 17 17 18 19 21 23 24 26 29 30 31 30 31 31 30 29 31 33 30 29 32 33 34 35 32 31 31 31 31 30 30 29 27 26 26 26
1 2 1 1 1 3 5 4 2 2 3 3 4 4 5 7 7 6 7 6 6 6 5 6 6 7 7 7 7 8 9 11 13 15 15 16 17 18 18 19 18 18 19 20 21 20 21 23 23 23 25 25 24 24 22 22 20 19 17 16 17 17 18 19 19 21 23 24 25 27 30 32 31 31 32 31 29 30 33 31 30 32 33 33 34 34 33 33 32 33 32 31 32 30 29 28 28
3 2 0 1 2 3 4 5 4 2 1 3 4 5 6 8 7 5 6 5 5 5 4 4 5 6 6 6 7 7 7 9 12 13 14 14 16 17 18 18 18 18 18 19 21 21 19 20 22 21 23 24 23 23 22 21 20 19 19 18 17 17 18 19 19 20 21 23 25 25 27 30 32 30 30 33 31 30 32 32 30 31 33 34 34 34 35 34 33 35 34 32 32 33 33 32 31
2 2 1 1 2 2 3 3 5 3 1 1 2 4 6 6 3 1 5 4 4 5 4 4 4 5 5 5 6 7 8 9 11 12 12 13 13 15 16 17 17 17 17 18 19 21 19 18 21 20 21 23 21 22 22 20 19 19 19 19 17 17 18 19 19 20 20 21 22 23 26 28 30 28 26 28 30 30 32 33 32 31 32 35 35 35 35 34 33 35 36 34 34 35 35 34 33
2 1 2 2 2 1 3 2 4 3 1 2 3 3 4 2 1 2 5 4 4 5 5 4 3 4 5 6 5 6 7 9 11 10 11 12 12 13 14 16 17 16 16 18 18 19 20 18 19 19 20 22 21 20 20 20 19 18 17 18 17 17 17 17 19 20 20 21 21 22 23 25 27 30 29 27 26 26 29 32 33 32 32 34 35 36 36 35 32 32 34 34 33 34 34 34 34
1 1 2 5 5 3 3 2 2 3 1 2 2 2 4 4 3 5 5 4 4 4 4 4 3 4 4 5 5 4 6 9 10 10 11 12 12 13 14 15 16 16 16 17 17 19 19 18 18 18 19 20 20 19 18 18 19 18 16 16 16 16 17 16 17 18 19 21 22 23 23 23 24 27 31 32 28 23 24 28 32 33 33 33 34 35 35 36 33 31 32 33 32 32 32 32 33
1 3 3 4 3 3 4 3 1 1 3 4 3 2 3 5 5 5 4 5 6 5 4 4 4 4 3 4 4 4 6 8 9 11 11 12 13 13 13 15 16 16 16 17 17 18 18 18 17 18 18 19 19 18 17 17 18 17 16 16 15 14 15 16 17 17 18 20 21 22 23 24 24 24 26 30 30 28 26 26 28 31 32 33 33 34 34 35 35 33 32 33 32 32 33 33 34
2 1 2 1 2 2 3 3 2 1 3 3 3 3 3 6 7 7 5 6 7 5 4 4 3 4 3 3 4 4 5 7 9 11 11 11 13 13 13 15 16 16 16 17 18 18 18 18 17 17 17 19 19 17 16 17 17 17 16 16 15 15 15 15 16 17 17 19 21 22 22 22 24 25 24 24 25 27 28 28 28 28 30 31 32 34 35 35 36 35 34 34 33 32 33 32 34
3 4 2 4 3 5 2 3 1 2 1 2 2 4 3 6 8 7 6 6 7 5 5 4 4 4 3 3 3 3 4 7 9 10 11 11 12 13 13 14 17 18 18 19 20 21 22 20 18 18 18 19 20 18 17 17 16 17 17 16 15 16 15 15 15 15 16 17 19 21 22 22 23 23 24 24 24 24 25 26 28 29 29 31 32 33 34 35 35 35 35 36 35 33 33 32 33
4 4 3 5 5 5 4 2 3 1 2 2 2 4 5 4 8 8 7 7 7 6 5 5 4 4 3 3 3 3 3 5 6 8 10 11 11 13 14 15 17 18 19 20 22 23 24 22 20 20 21 22 20 17 17 17 16 16 17 17 16 16 16 16 15 15 15 16 16 18 20 21 23 23 22 22 24 26 26 25 25 27 28 30 32 34 35 36 36 35 34 36 37 35 34 34 32
4 3 3 4 5 6 6 1 2 2 4 4 4 7 6 4 9 9 8 8 7 6 5 5 4 3 3 3 3 3 3 3 4 7 10 11 11 13 15 16 16 18 18 19 22 23 23 23 22 21 22 23 21 18 17 17 17 16 17 17 16 16 17 18 17 17 17 16 15 16 18 19 22 25 23 21 21 24 26 27 25 25 26 29 33 35 36 37 37 37 36 36 38 37 35 35 33
4 5 4 4 5 6 7 6 2 4 4 6 8 8 5 5 9 8 9 9 7 7 5 5 4 3 3 3 3 3 3 3 4 7 10 11 12 14 16 16 17 19 20 21 23 24 24 24 24 23 23 23 21 19 18 17 16 15 16 17 16 17 18 19 19 17 18 19 17 17 17 17 19 21 23 22 22 22 24 26 27 26 25 27 31 34 35 36 36 37 37 36 37 37 36 36 35
6 6 5 5 7 6 7 9 5 4 5 7 8 8 6 5 10 9 8 8 7 7 5 4 4 4 3 3 3 3 3 3 5 8 10 13 14 16 18 18 20 21 21 23 25 26 25 26 26 26 25 23 21 21 19 17 15 14 15 16 16 17 19 20 20 19 20 21 21 21 20 18 18 19 20 21 21 22 23 25 28 28 27 26 28 32 34 35 36 36 35 36 36 35 34 35 33
6 6 6 5 7 7 9 12 7 2 4 7 8 9 10 8 9 11 9 8 7 7 6 5 4 3 3 3 3 3 3 3 6 9 12 15 16 18 20 20 21 22 22 25 27 27 27 28 28 28 26 24 22 21 19 18 16 14 14 15 16 17 18 20 21 21 21 22 21 22 23 23 22 21 21 21 21 22 22 24 27 29 29 28 27 29 33 34 35 35 35 34 35 34 32 33 33
6 5 5 5 6 8 12 13 6 3 5 8 11 11 11 10 6 11 10 9 8 8 7 5 4 4 3 3 2 3 3 4 6 10 14 17 18 20 20 19 20 21 24 27 28 29 30 29 28 27 27 26 24 21 19 19 18 17 17 18 19 19 18 19 21 22 22 25 24 23 25 26 25 22 21 21 21 22 22 23 25 28 29 29 28 27 29 32 34 35 34 33 34 35 33 32 35
6 4 3 5 7 10 11 9 5 6 6 8 14 12 10 11 4 10 10 8 6 5 5 5 4 4 3 3 2 3 4 5 6 9 15 18 19 20 20 20 20 21 24 27 29 30 30 29 28 28 28 27 26 22 19 18 19 20 22 24 25 25 23 20 20 22 23 25 27 28 29 28 25 22 20 20 20 21 22 23 24 26 29 29 28 28 26 29 32 33 35 33 30 31 31 31 38
5 2 4 6 8 9 8 9 10 10 7 10 15 11 9 10 3 7 7 6 5 5 6 5 4 4 3 2 3 4 5 7 9 10 12 16 19 20 20 21 21 22 25 28 29 29 29 29 30 31 29 28 26 23 21 21 21 21 22 25 28 29 28 24 21 21 20 22 26 28 26 26 25 22 21 21 21 21 21 23 25 25 27 29 29 28 26 26 29 30 32 34 30 27 27 29 37
5 4 5 8 12 11 10 12 14 12 9 9 9 8 7 4 3 6 5 5 7 6 6 5 4 4 3 2 4 5 6 8 10 12 12 16 19 21 23 24 25 28 30 30 30 28 27 28 30 31 30 29 27 25 24 22 20 21 23 25 26 27 27 25 22 21 20 20 24 27 24 21 20 20 21 21 20 20 20 21 24 26 27 28 28 28 27 25 26 28 28 31 32 29 26 26 32
5 2 6 11 15 15 15 14 12 9 7 2 2 4 6 3 2 6 6 5 6 6 5 5 4 4 4 4 5 6 7 7 9 11 14 17 21 24 26 29 32 33 33 31 30 29 28 28 28 28 29 29 28 27 25 22 20 22 23 24 24 23 23 23 22 22 23 21 22 25 27 25 23 21 20 20 20 21 21 21 21 24 26 28 27 27 28 25 24 26 27 28 32 32 28 24 27
5 3 8 14 16 16 17 15 8 5 6 5 1 2 5 7 6 3 8 6 6 6 5 4 4 4 4 5 5 7 9 8 9 10 14 18 22 26 29 31 33 33 32 31 30 30 30 30 28 28 29 28 27 27 25 21 21 22 23 25 25 24 23 23 25 24 24 23 22 22 24 26 27 27 25 22 22 22 22 21 21 21 24 27 28 27 28 27 25 25 25 25 28 30 29 25 26
5 6 10 14 17 17 18 13 7 5 6 10 6 2 5 10 8 3 9 7 7 7 5 5 5 4 5 6 7 9 11 10 9 11 14 19 25 28 30 32 32 33 33 31 30 30 30 31 31 30 29 28 27 27 25 22 21 23 25 26 27 27 25 25 27 26 25 25 25 24 24 25 25 27 28 26 24 23 22 23 21 20 21 24 28 29 28 27 25 26 26 25 26 29 31 29 27
6 8 9 13 16 18 17 10 7 6 4 7 5 8 7 10 10 2 7 7 7 7 5 6 6 6 6 7 7 9 11 11 12 14 16 21 27 30 31 31 32 34 33 31 30 30 30 31 31 30 30 29 27 26 26 24 23 25 27 27 28 28 28 27 27 27 27 26 25 25 26 25 24 25 26 27 26 25 24 24 22 21 21 22 25 29 30 28 25 24 26 26 26 29 31 31 28
8 9 10 11 13 16 13 6 5 5 2 4 7 12 8 9 11 7 2 4 3 5 5 5 6 7 7 9 9 11 12 12 13 15 18 23 28 31 32 31 31 33 33 32 31 30 31 31 30 31 31 29 28 27 27 25 24 25 27 27 29 30 30 29 28 27 27 26 26 26 25 25 24 23 25 27 27 26 25 24 22 22 23 22 22 25 29 30 28 25 25 26 25 26 29 31 29
8 8 10 10 9 10 6 1 2 4 3 3 9 13 10 8 8 4 2 2 3 5 5 4 5 7 8 8 10 12 11 12 14 15 19 27 31 32 31 30 30 32 32 31 31 31 31 30 30 31 31 31 31 30 28 25 25 27 28 29 29 30 30 29 27 27 26 25 25 26 25 24 24 23 24 26 27 28 28 26 24 22 22 21 22 23 25 28 30 28 27 27 26 25 27 29 28
6 5 8 9 6 5 3 3 3 4 5 6 12 15 12 8 5 2 3 2 5 5 3 2 5 10 10 9 11 13 11 13 16 16 19 24 27 28 29 29 29 30 30 30 30 30 29 28 29 30 32 34 34 32 30 28 28 30 29 29 28 29 30 29 27 27 26 26 25 25 25 24 24 24 23 24 26 27 29 29 28 26 24 23 22 22 23 24 26 28 28 29 29 28 27 28 28
5 5 7 7 6 5 5 5 4 4 8 9 13 15 9 7 4 4 6 5 5 4 3 2 8 12 13 11 12 12 12 15 17 17 18 18 19 24 27 28 28 28 29 30 30 30 29 29 30 31 32 34 34 33 31 30 29 30 29 27 27 29 29 28 27 27 26 25 25 25 24 23 23 23 23 24 26 27 29 30 31 30 28 26 24 23 22 22 23 24 26 29 31 31 30 29 30
6 6 6 5 5 6 5 5 5 6 10 12 14 12 7 6 4 4 5 5 5 5 2 6 11 13 14 12 12 13 15 18 18 18 17 15 18 25 27 27 27 27 28 29 30 29 30 30 30 30 30 31 30 29 29 28 28 29 28 28 29 30 29 28 28 28 27 27 26 26 26 24 24 24 24 24 25 26 28 29 30 31 29 28 27 26 24 22 22 22 23 25 28 31 31 31 32
4 4 4 3 3 3 3 4 5 7 12 13 12 8 4 6 3 3 4 5 6 4 4 12 15 16 16 14 14 16 18 19 18 17 17 18 23 28 28 29 28 26 27 28 28 29 30 29 28 29 30 29 29 28 29 30 31 31 31 30 30 30 31 30 30 30 29 29 28 28 28 27 26 26 26 26 27 27 26 27 27 28 28 28 27 26 26 25 25 24 23 24 25 26 27 29 31
3 3 3 2 3 1 3 5 6 9 11 9 7 5 4 7 6 3 4 2 1 6 14 18 17 16 16 15 15 17 18 18 17 16 17 20 27 29 28 29 26 24 26 28 28 30 31 29 29 30 30 29 29 30 32 35 36 35 34 33 32 32 32 32 31 31 30 29 29 30 30 29 28 27 26 26 26 26 25 25 25 25 26 26 25 25 25 25 26 27 26 25 25 24 24 26 28
2 3 3 4 5 2 2 7 8 8 10 7 6 7 6 8 7 0 4 8 11 15 19 20 19 18 17 15 15 17 18 17 17 16 17 20 25 27 27 28 24 23 26 27 28 31 32 30 30 29 28 27 30 32 35 36 36 35 34 34 34 34 34 35 33 32 31 30 31 30 29 29 28 26 25 25 25 25 24 24 25 24 23 23 23 24 25 25 25 26 28 29 29 28 25 25 26
1 2 2 5 6 2 1 5 7 7 8 6 8 12 10 7 5 5 12 15 15 17 20 20 19 18 17 16 16 19 19 18 17 18 18 20 23 25 27 28 26 25 26 26 29 32 32 30 29 28 26 26 30 34 35 35 35 36 36 34 34 34 35 36 35 33 31 31 32 31 29 28 28 26 26 25 24 24 24 24 25 25 24 23 23 22 23 24 24 25 27 28 30 31 28 27 27
0 0 1 1 1 1 2 4 6 8 10 8 10 14 10 5 4 9 14 15 16 20 21 20 18 17 16 16 18 21 20 17 17 18 17 17 22 26 28 28 27 27 28 27 30 33 30 27 26 25 25 27 33 36 36 35 36 37 38 38 38 37 35 36 36 34 32 31 31 32 30 29 28 27 26 24 24 24 24 24 23 24 24 25 24 24 24 24 23 24 26 26 27 28 28 29 30
1 1 1 1 1 1 1 2 4 7 10 10 12 13 7 3 5 11 14 17 21 22 19 16 16 17 17 17 19 20 19 17 17 18 16 16 22 29 30 28 27 26 27 29 32 32 29 26 23 22 26 32 35 35 35 37 38 38 39 39 39 38 37 35 35 34 32 31 31 30 29 29 28 27 26 25 25 25 25 25 25 24 24 24 25 26 26 26 25 24 25 26 26 25 26 28 30
2 3 2 1 0 1 1 2 3 4 8 10 10 12 8 3 5 11 16 20 21 20 17 16 17 19 19 19 20 20 19 19 18 18 17 18 24 30 30 28 27 26 28 30 31 30 27 24 22 23 28 31 32 34 35 36 39 40 39 36 36 39 39 36 34 32 31 32 34 33 31 32 30 27 26 25 24 24 24 25 25 25 24 24 25 25 25 26 26 26 26 25 25 24 25 27 27
1 3 2 0 1 1 3 5 3 2 6 8 9 13 10 3 6 11 15 18 19 18 18 18 18 21 21 20 21 21 20 20 20 19 17 18 24 29 29 28 27 28 30 31 30 26 24 23 23 25 27 29 31 33 35 37 40 39 34 32 36 40 40 37 33 30 29 30 32 32 31 31 29 26 25 24 23 24 24 23 23 24 24 25 26 26 26 25 26 27 26 24 24 24 25 27 26
Wind_Direction
210 272 269 218 225 238 220 182 284 233 218 259 260 265 278 348 37 28 322 312 354 66 33 29 49 66 332 350 257 289 286 262 248 271 303 169 147 117 126 289 79 150 160 171 202 197 184 180 177 179 179 181 184 186 185 184 185 186 187 188 188 187 188 190 187 186 189 186 185 190 189 190 191 193 195 191 191 189 188 190 190 190 189 186 178 173 167 160 158 154 150 149 145 128 124 129 125
176 290 272 241 241 245 220 169 252 258 231 259 264 256 340 7 44 50 354 35 71 87 21 13 32 33 61 226 255 288 272 239 236 269 78 130 127 69 55 16 19 111 156 171 198 200 186 183 180 180 181 183 187 187 189 186 188 189 189 190 190 190 190 192 191 191 191 188 190 190 189 192 193 196 195 191 193 190 190 191 188 189 190 184 177 175 170 161 159 158 158 156 149 136 130 132 128
199 243 241 224 232 239 242 217 243 270 249 265 274 157 63 349 350 115 95 83 100 96 60 20 51 53 132 211 296 310 285 289 9 323 50 70 67 37 25 4 4 22 172 175 196 201 189 187 183 182 184 188 191 189 193 189 189 190 190 191 190 192 193 193 194 195 196 191 193 194 194 196 194 197 197 194 195 192 191 192 191 194 194 188 180 177 176 167 165 163 160 162 154 142 136 136 130
212 229 237 223 209 225 228 226 243 267 268 278 281 151 111 142 95 89 73 87 103 65 39 11 33 84 313 289 326 316 306 321 39 6 38 46 29 23 16 356 357 359 217 191 194 199 192 191 185 184 188 192 194 193 196 192 192 192 191 191 190 193 193 193 196 198 198 193 191 194 197 196 194 196 197 196 196 194 193 194 196 197 195 193 188 182 182 174 169 171 168 166 158 146 140 140 134
215 248 255 248 235 219 222 237 235 251 258 270 282 322 26 51 63 30 8 48 92 74 73 57 13 21 287 259 332 283 324 329 47 26 29 32 17 14 5 355 356 356 255 214 200 198 193 196 189 185 193 195 198 199 199 198 196 195 194 192 191 193 192 193 197 196 197 197 194 192 195 196 195 196 195 196 196 196 196 197 197 198 196 193 196 194 185 180 175 174 172 168 159 150 147 145 139
236 246 235 245 289 323 269 258 238 247 247 259 284 63 55 42 44 12 357 37 97 107 106 87 58 347 267 257 129 74 12 12 50 33 25 18 12 8 360 359 351 341 315 243 211 201 193 201 193 185 194 197 200 203 202 204 201 199 196 194 196 196 195 196 198 195 197 201 199 194 194 194 195 197 197 197 197 198 198 198 198 198 197 193 199 201 186 180 181 179 178 174 166 158 154 150 147
259 248 197 212 273 272 254 259 254 267 258 252 303 61 66 49 35 13 5 14 100 114 76 101 67 20 243 1 44 47 36 35 41 32 27 20 14 6 359 0 348 338 323 275 232 219 208 206 198 187 191 196 201 203 204 206 203 203 201 199 200 199 198 198 199 198 200 202 200 199 198 196 195 198 199 199 199 199 198 199 200 197 198 197 200 204 192 185 183 182 184 181 175 166 160 156 155
253 254 163 215 239 210 235 253 262 265 255 239 64 67 67 56 40 22 12 2 24 12 38 119 83 72 63 4 355 47 35 26 26 24 20 13 9 5 357 356 347 338 324 300 252 234 223 207 200 191 189 196 201 202 204 204 203 204 204 205 206 204 202 200 201 201 203 203 200 200 201 199 197 201 200 200 199 198 200 199 199 199 200 198 200 203 196 195 191 186 189 187 185 177 169 166 164
214 210 327 249 248 229 235 241 251 250 251 43 69 69 72 59 35 29 13 359 349 356 26 48 85 82 13 349 27 49 27 13 11 13 12 6 4 2 355 351 343 336 329 310 257 236 224 202 199 193 188 196 203 204 204 204 204 203 204 207 209 208 206 204 206 205 205 204 203 203 205 203 199 202 200 199 200 200 202 201 200 200 202 200 198 200 198 198 192 189 193 192 190 183 171 169 172
190 190 275 269 255 245 246 234 244 247 77 64 61 46 46 39 31 32 12 354 338 8 31 357 27 56 342 328 58 44 20 11 7 3 1 0 0 357 354 349 344 340 335 326 278 235 221 205 201 194 188 196 204 206 207 207 206 204 206 207 209 210 209 210 209 207 207 207 207 207 207 205 202 201 201 200 202 202 202 202 201 199 202 202 196 199 202 195 186 185 193 196 195 189 179 174 175
214 185 231 263 249 241 249 247 287 13 71 69 53 36 24 13 34 32 6 348 337 20 36 355 6 13 324 354 75 27 17 14 8 358 352 351 357 356 355 350 351 352 344 339 306 256 239 212 207 200 192 197 204 207 207 208 208 207 207 207 211 212 211 211 210 210 211 212 210 210 210 207 204 203 203 203 203 203 203 202 202 201 202 202 197 199 201 198 191 187 192 198 197 197 191 180 175
263 213 191 239 251 247 283 325 318 13 67 63 42 30 2 12 43 24 357 353 359 27 27 10 3 332 321 19 76 25 17 11 2 355 350 347 351 357 2 358 355 354 348 343 329 295 278 234 210 203 196 201 206 209 209 209 207 206 207 207 212 214 213 212 212 214 214 215 214 214 214 211 210 209 207 206 205 203 204 203 203 202 201 201 200 199 199 200 197 194 195 198 197 199 195 182 177
280 303 284 258 278 281 324 329 319 358 55 51 35 14 350 21 48 22 357 10 26 34 26 13 354 347 3 348 357 26 18 6 357 354 352 349 348 351 7 11 6 3 3 353 341 325 290 264 215 206 202 206 211 213 213 212 211 209 208 208 211 213 213 211 212 216 216 216 216 215 216 216 214 212 210 208 207 205 204 204 203 203 202 202 202 199 198 200 199 198 196 197 198 200 198 182 179
303 325 318 288 299 296 309 282 346 15 55 52 33 7 4 25 47 34 10 33 42 42 47 30 0 354 17 351 352 10 6 1 359 356 355 359 3 357 5 16 18 16 21 20 360 336 306 285 236 217 212 215 219 220 219 217 217 218 215 213 215 215 213 212 210 212 216 218 218 217 216 216 214 213 212 210 208 207 205 206 206 203 204 203 203 201 200 199 199 199 198 200 200 201 197 173 176
320 324 317 285 282 279 335 3 12 21 73 56 10 356 32 42 41 50 24 42 53 38 55 41 18 18 25 14 8 359 359 360 0 2 5 14 23 24 20 20 24 25 25 30 26 355 316 300 274 234 223 226 228 229 230 227 226 226 223 219 219 221 218 215 215 214 216 219 220 220 219 218 216 211 211 212 210 207 203 206 207 204 205 204 203 203 203 202 199 200 201 202 202 202 194 171 177
344 322 302 266 264 260 352 6 4 344 338 17 3 359 47 53 35 69 45 59 73 44 55 47 34 58 46 35 24 8 7 4 6 11 17 23 27 30 28 24 25 27 24 25 27 17 360 328 298 272 252 240 237 237 240 240 239 236 231 225 221 223 224 219 218 219 218 221 224 227 225 223 223 211 209 215 212 209 206 206 207 205 206 205 204 204 204 205 203 204 203 203 203 202 199 189 188
77 281 255 259 272 2 16 6 10 333 323 351 358 12 52 48 20 75 71 71 77 56 62 65 58 63 54 45 29 20 17 14 16 20 27 29 28 30 28 25 22 22 20 20 20 19 19 12 350 311 285 266 252 244 247 250 250 248 240 235 228 225 226 222 220 220 220 221 224 232 230 225 230 217 211 217 215 215 211 206 206 206 205 204 205 204 205 205 204 204 200 205 204 202 205 197 189
306 250 243 267 1 50 22 24 34 339 329 339 346 41 67 32 354 25 78 73 76 70 63 67 68 63 55 45 33 30 26 23 25 27 31 32 33 33 30 28 23 21 18 17 16 16 17 13 10 360 330 297 281 264 255 252 254 261 252 242 237 231 229 227 224 222 222 221 221 228 232 225 228 223 217 222 219 220 218 208 206 206 205 204 204 204 206 204 203 203 200 204 201 202 209 197 184
238 266 264 327 25 62 39 42 53 352 335 322 337 73 77 39 341 314 82 77 69 72 59 57 60 53 50 42 34 35 33 31 31 32 34 33 34 34 32 30 26 24 20 18 17 16 16 10 9 9 2 341 314 298 285 271 261 264 259 247 241 236 233 232 229 227 225 224 221 225 229 222 222 224 224 226 224 224 225 217 210 207 206 204 202 201 204 203 202 203 201 203 200 201 209 208 196
233 269 287 40 25 82 72 54 58 10 330 305 323 91 81 48 350 308 115 93 66 69 57 50 54 46 44 41 37 37 37 37 35 36 37 35 36 35 34 31 28 26 22 21 19 17 18 14 10 7 6 3 349 327 307 300 288 271 260 251 246 241 238 236 233 231 229 226 224 224 226 221 218 221 225 227 225 224 226 226 215 208 206 204 203 200 200 202 201 201 200 202 202 202 206 211 208
300 312 349 35 358 18 78 68 57 358 306 300 284 111 94 71 28 358 119 109 77 75 69 56 59 54 47 43 40 40 41 40 39 39 38 35 35 35 35 33 30 27 23 23 22 19 17 16 14 9 6 6 5 355 329 308 302 296 282 266 258 249 242 239 234 232 231 229 226 226 226 222 218 219 224 225 224 221 222 228 217 208 206 202 203 202 199 201 199 199 200 201 202 205 207 209 213
323 61 56 30 349 350 81 79 52 327 301 337 312 107 102 91 53 28 56 95 93 87 86 74 66 61 55 50 44 43 43 41 40 39 39 35 32 31 32 31 29 25 23 23 21 19 16 15 15 13 10 8 6 2 351 324 304 299 294 288 276 263 252 243 235 231 230 230 228 227 227 223 220 219 221 222 223 218 215 223 217 208 206 203 205 202 198 201 200 200 200 200 202 206 210 212 215
277 103 80 26 355 353 74 86 51 315 343 60 79 91 99 98 80 59 68 86 99 94 95 91 80 73 66 59 51 46 43 41 41 39 38 36 32 29 26 26 25 22 21 20 18 17 16 15 14 13 11 11 8 2 358 349 330 312 297 292 287 277 268 254 242 234 230 230 228 228 227 224 223 221 219 219 220 215 211 218 218 210 208 206 207 202 197 201 201 201 201 199 200 203 210 211 210
248 79 56 21 17 21 75 99 162 358 54 75 112 121 123 111 103 92 89 99 112 108 113 114 104 88 75 66 57 50 46 42 42 41 39 37 35 31 25 24 22 20 20 18 15 14 14 14 13 12 10 8 7 4 1 358 349 339 323 307 298 289 281 271 259 247 239 235 230 226 226 226 226 222 219 219 217 214 210 213 217 214 210 210 211 206 199 199 198 200 202 201 200 202 206 205 204
336 54 55 15 67 90 114 136 133 78 90 100 114 118 102 104 108 101 101 110 121 125 130 126 114 95 80 67 60 53 49 45 42 40 39 36 33 31 27 21 18 18 18 15 12 9 10 12 12 12 10 7 4 2 3 2 354 347 340 328 317 306 293 284 274 264 254 247 240 232 227 227 229 225 220 220 219 215 210 210 214 216 213 212 211 210 206 201 198 197 199 201 201 204 203 200 202
17 25 165 117 109 108 139 160 136 96 103 131 138 122 112 123 120 101 109 116 124 132 131 128 113 97 86 72 65 58 53 47 43 40 37 36 31 28 25 19 15 14 12 10 9 5 1 6 9 9 9 6 3 360 359 360 357 351 344 334 325 319 310 299 287 277 270 261 256 250 240 232 232 230 222 220 220 215 210 209 213 215 213 212 210 211 209 205 202 199 198 198 198 202 203 200 201
355 318 296 63 105 128 175 177 136 129 84 241 212 150 140 154 165 115 125 138 149 142 136 134 118 104 95 85 77 65 60 50 45 41 36 34 30 27 22 17 12 8 6 5 4 2 357 358 3 4 4 4 1 357 356 355 353 351 347 340 333 325 317 310 302 291 283 274 266 262 257 250 245 241 233 228 226 220 213 209 212 214 213 212 210 210 209 207 206 203 200 199 198 200 199 198 199
312 308 302 260 218 179 190 155 133 154 135 275 254 160 156 189 226 136 134 161 175 153 143 141 125 113 105 97 89 71 67 57 46 42 38 33 27 24 21 15 9 5 3 359 357 357 355 353 356 357 357 358 356 352 351 351 351 347 344 342 338 329 319 312 308 301 294 286 278 270 265 263 259 252 247 242 234 228 219 211 210 212 212 211 210 209 208 206 206 205 202 200 200 199 195 195 199
256 209 259 237 221 234 205 140 146 178 152 195 216 204 206 204 170 137 144 171 175 169 156 151 139 122 116 108 103 84 71 61 50 43 39 34 26 21 20 14 7 3 360 355 353 351 350 349 349 349 349 351 350 345 341 342 346 344 338 336 333 328 323 315 306 300 294 290 285 280 273 269 267 259 253 249 244 240 231 218 213 212 212 212 210 210 207 204 205 204 202 201 199 196 192 193 196
243 203 224 248 233 229 189 166 303 174 157 162 150 284 224 177 160 150 167 183 178 180 164 158 152 132 124 113 109 99 79 63 53 43 37 33 25 18 15 11 4 359 355 352 350 347 345 344 343 341 340 341 340 336 332 330 336 338 332 327 323 320 320 315 308 300 292 289 284 283 281 274 272 269 261 255 251 249 243 231 222 214 211 212 210 210 207 202 202 202 199 197 197 195 192 194 195
318 190 190 353 357 299 171 153 347 66 176 180 166 270 242 171 172 165 177 195 187 182 165 159 156 141 133 119 105 98 90 67 54 43 35 31 24 15 9 5 359 354 350 347 344 342 341 338 337 335 330 331 329 325 324 321 323 328 325 319 315 312 309 307 307 303 294 289 283 280 281 279 276 273 267 260 254 249 244 239 232 222 214 212 211 210 207 202 200 199 197 194 193 194 193 194 196
15 32 337 354 3 314 293 154 125 96 226 248 193 262 254 175 176 171 177 198 196 184 169 164 161 149 133 124 107 93 92 69 53 41 32 27 21 12 4 360 355 350 347 344 341 339 337 334 332 331 325 322 319 315 316 314 312 317 318 312 307 305 304 300 298 298 294 287 283 279 277 275 274 275 272 263 257 251 246 242 236 230 221 214 211 210 208 204 201 198 198 196 192 192 193 194 198
23 28 317 333 348 312 306 172 152 63 309 286 221 266 273 185 169 175 180 191 195 190 179 171 166 154 133 118 106 90 83 63 46 34 26 18 11 7 359 355 352 347 344 342 340 336 333 329 325 324 321 317 310 305 307 309 305 308 312 307 300 299 299 294 287 287 286 281 279 279 276 273 269 271 275 269 262 257 253 251 244 235 225 216 213 212 210 206 202 199 199 199 196 194 194 195 196
345 353 316 322 329 308 303 267 151 352 330 303 286 273 269 173 160 178 183 187 195 194 187 176 168 150 132 113 93 81 70 62 39 21 15 8 2 359 353 348 345 341 339 338 337 333 327 324 319 315 315 312 304 297 300 303 300 301 306 304 299 298 297 291 284 280 279 275 275 277 272 270 268 266 268 268 265 261 256 254 253 246 234 222 216 214 212 208 205 202 200 200 199 197 196 196 197
313 325 321 311 315 301 297 309 351 9 344 309 300 280 260 164 165 183 179 184 197 194 185 173 169 150 134 108 83 68 45 53 31 7 2 358 352 351 348 343 340 336 336 336 334 331 327 323 319 314 312 309 302 296 295 295 294 297 302 301 298 299 299 294 287 282 281 276 273 275 267 257 258 262 265 266 265 263 259 254 253 253 246 234 223 216 213 209 207 205 202 200 200 201 201 200 198
307 308 297 290 305 298 297 315 332 13 339 295 287 285 276 201 181 183 176 183 196 191 178 167 168 151 129 99 78 48 21 41 18 356 351 349 347 348 344 340 339 336 336 335 332 330 328 325 322 317 313 309 305 302 297 293 291 295 300 302 303 305 303 299 292 288 286 280 272 272 270 259 252 250 254 261 264 262 259 256 253 252 251 247 234 221 214 210 208 207 205 202 199 201 204 203 200
292 289 283 292 305 304 307 311 311 21 335 283 278 288 286 259 192 175 174 180 191 190 178 169 161 142 117 90 69 33 16 6 354 348 344 344 347 347 342 339 338 335 334 333 331 329 327 325 320 316 314 311 305 304 303 301 298 298 298 299 300 301 302 301 298 293 290 285 278 272 272 272 268 258 250 250 256 259 258 255 252 250 251 252 246 232 220 215 212 210 209 206 202 201 202 203 200
277 262 286 316 312 306 303 301 307 341 315 284 283 282 277 278 205 168 172 177 189 189 176 165 145 130 116 94 61 28 10 345 342 342 341 344 346 343 339 337 335 332 332 332 330 327 325 323 318 314 314 311 305 303 303 305 306 305 302 298 295 292 290 291 293 295 294 291 286 278 275 275 274 270 259 249 247 250 254 256 252 248 248 250 253 247 232 221 217 215 211 208 207 204 202 200 193
281 253 324 336 318 314 298 287 318 332 313 290 289 285 278 286 241 164 171 177 178 164 143 131 122 111 84 69 42 12 353 341 338 338 344 345 341 337 335 332 330 330 331 328 326 325 324 323 319 315 313 309 306 304 305 307 309 309 307 305 303 297 288 279 279 283 288 290 287 281 274 268 268 271 270 264 257 250 248 252 252 248 245 246 250 253 246 230 220 218 215 211 208 205 206 201 193
315 359 14 333 321 327 304 298 318 316 291 277 285 289 287 287 252 150 170 168 134 117 113 102 100 97 68 32 23 11 347 343 342 342 347 342 333 331 330 325 324 328 328 324 322 325 328 326 321 317 313 309 305 303 303 302 305 309 311 310 307 303 297 290 283 280 280 284 286 287 277 260 258 266 272 273 271 266 259 253 252 251 247 243 245 250 252 242 226 219 217 214 209 203 204 201 198
340 33 25 329 320 316 297 301 313 310 287 270 284 297 293 282 164 155 167 144 123 128 135 123 112 110 90 20 13 13 354 353 353 348 345 338 331 329 328 327 329 329 326 320 321 325 326 322 320 318 315 312 307 303 302 305 314 320 317 313 308 304 302 299 295 290 288 285 282 288 291 279 270 271 273 271 270 274 274 264 256 254 249 245 244 245 248 249 238 226 222 219 214 208 204 201 199
321 16 7 330 317 309 300 305 317 319 301 296 49 316 299 310 204 178 154 142 144 147 144 131 114 94 71 23 9 5 356 358 356 349 344 338 334 334 336 336 332 326 322 321 326 329 325 320 318 318 316 313 310 307 306 312 323 325 320 315 310 305 301 298 296 293 290 285 278 278 285 290 290 287 284 278 275 277 276 271 264 257 253 249 247 246 245 248 245 236 229 224 219 215 209 202 201
301 315 351 326 311 307 301 306 320 303 293 304 317 269 291 312 314 156 148 160 153 143 138 118 84 65 51 15 5 3 356 353 353 348 343 339 339 340 337 333 328 323 323 329 334 332 327 324 323 320 315 312 311 308 306 313 321 323 320 316 310 303 299 296 296 294 290 287 283 278 277 281 284 286 287 285 283 281 274 271 270 264 257 250 247 250 247 243 243 240 235 229 224 220 213 208 206
292 313 340 316 306 304 295 299 298 261 288 295 283 347 326 309 328 96 150 161 149 148 137 103 71 48 32 9 9 6 352 346 347 344 342 342 342 338 332 330 330 328 329 333 333 330 326 324 323 320 315 311 310 307 306 313 321 324 324 319 311 302 297 297 297 297 294 290 285 281 277 274 272 274 279 281 281 281 276 272 268 265 261 252 247 248 248 244 243 240 235 234 232 226 221 217 212
274 299 320 304 299 295 286 285 276 269 298 286 302 15 346 302 319 340 155 153 151 148 114 77 43 27 16 358 357 1 351 347 348 343 341 341 339 335 332 333 333 330 331 331 329 327 325 323 321 319 317 313 311 310 309 312 317 322 322 317 310 304 299 297 297 295 293 290 285 280 277 272 266 263 266 272 275 275 274 268 261 259 261 258 251 246 246 246 246 241 232 231 234 231 226 224 218
273 296 306 296 293 289 279 255 255 277 272 271 348 7 337 294 309 316 126 115 115 110 86 56 33 17 356 345 350 356 354 352 351 342 336 337 338 336 334 333 331 329 328 327 326 326 324 323 323 321 319 317 315 312 309 309 313 318 318 314 309 304 300 297 295 292 289 288 286 280 277 274 268 261 259 263 267 269 271 269 263 260 258 255 253 248 246 245 246 243 233 228 233 235 229 226 224
282 307 310 305 300 292 286 218 280 298 266 294 355 350 323 298 306 336 68 80 82 75 53 30 22 359 344 352 357 352 352 353 349 340 335 339 339 335 331 328 326 325 323 323 323 323 321 322 323 322 322 322 320 314 309 309 314 317 317 313 308 302 301 299 295 292 289 288 286 283 280 277 274 268 262 260 260 261 264 267 266 263 258 253 250 248 245 243 242 242 238 231 231 234 231 229 229
301 325 322 324 320 309 341 8 337 315 296 324 343 332 317 297 299 73 123 133 98 92 87 353 352 357 353 3 1 349 352 353 346 341 339 340 336 329 325 323 322 322 321 321 322 323 324 326 327 326 326 327 325 321 319 318 317 316 314 312 308 304 301 299 296 294 290 287 286 284 282 279 277 274 269 263 260 259 259 260 259 258 259 256 250 247 243 240 239 239 238 234 231 231 230 228 230
342 345 340 343 340 340 347 337 342 319 298 316 329 323 309 282 305 79 129 134 110 130 140 15 357 1 356 1 3 352 351 349 344 343 340 336 330 325 322 322 324 325 325 327 330 332 331 329 328 326 324 324 322 320 320 317 313 312 313 313 310 306 300 296 294 292 290 287 286 285 284 281 278 276 274 269 265 263 259 256 253 253 255 253 248 247 245 240 237 237 235 231 230 231 230 228 227
354 353 355 357 341 338 329 319 331 308 296 309 315 311 297 283 309 80 120 142 154 173 117 13 357 358 357 2 3 352 350 349 346 342 335 327 324 323 322 325 328 329 332 336 336 334 329 324 323 321 319 319 318 317 317 315 313 313 312 311 308 303 298 294 292 290 289 287 286 284 283 282 279 277 275 273 271 268 262 257 254 252 252 251 249 248 247 243 237 235 233 230 229 230 229 228 227
350 4 359 352 331 321 303 306 317 302 298 307 307 299 317 319 310 119 133 159 165 178 2 0 356 0 2 359 356 353 351 348 342 334 328 326 327 327 327 327 327 330 336 337 332 328 324 320 321 323 322 322 323 325 326 323 321 318 313 309 304 299 296 293 291 289 285 283 283 282 282 281 279 278 277 276 275 273 269 264 259 255 252 251 251 251 251 247 242 238 234 231 229 227 226 225 225
339 357 2 341 322 306 261 274 290 297 295 300 303 287 311 320 299 166 145 159 84 356 353 356 358 5 3 353 351 352 347 341 336 329 325 328 330 329 327 324 325 332 335 331 326 324 322 321 325 326 323 326 331 334 333 330 325 320 316 311 306 301 296 292 290 288 285 283 283 281 281 281 278 277 277 276 275 275 273 269 265 261 257 253 252 255 256 253 249 245 240 234 230 227 225 225 225
311 336 356 302 287 255 254 285 291 298 292 292 306 294 303 316 299 276 22 354 358 355 350 351 353 2 1 350 348 347 341 336 331 325 324 327 327 324 321 321 324 332 331 325 324 325 324 322 322 322 324 333 338 336 331 327 322 319 315 311 308 305 300 294 290 287 286 286 285 282 279 280 279 278 278 276 276 276 277 276 272 267 263 258 256 256 258 258 256 252 245 240 235 230 227 226 227
327 323 335 299 283 219 168 306 306 307 297 289 303 304 311 317 303 3 0 351 352 347 345 349 354 360 353 343 343 339 334 330 326 324 323 323 323 320 321 323 325 328 325 322 326 326 321 317 318 323 329 335 335 331 327 323 320 317 314 311 307 303 300 296 290 286 284 284 285 283 278 277 277 278 278 277 277 277 278 279 278 272 267 264 261 258 257 256 257 257 253 246 240 235 230 228 228
27 265 346 347 311 301 333 321 311 311 304 298 308 309 311 313 323 351 351 347 348 345 347 353 353 352 344 337 338 333 330 330 326 325 323 323 324 323 324 325 326 326 323 324 327 322 315 314 321 326 327 330 332 331 328 323 319 317 314 311 308 303 298 294 291 288 285 283 283 281 276 275 274 273 273 275 276 277 277 278 276 273 268 264 261 258 256 254 252 253 254 252 247 240 234 232 230
356 39 30 91 111 263 281 288 287 305 304 306 315 310 310 9 351 345 349 349 348 347 351 353 347 343 338 334 335 332 330 330 327 325 325 325 325 323 323 325 325 321 320 325 325 318 314 315 318 322 328 332 332 328 325 321 318 315 311 309 308 306 300 293 290 291 288 287 287 282 277 276 275 272 269 268 269 270 271 273 273 274 271 266 261 257 252 248 244 244 248 249 248 243 237 235 234
331 329 309 315 63 232 231 239 250 296 304 307 313 303 306 24 9 353 355 349 346 349 350 347 343 339 335 333 334 332 329 328 327 327 326 325 324 323 323 324 323 320 322 325 321 316 316 315 316 323 330 332 329 324 322 319 317 312 307 306 310 311 306 295 288 289 289 288 289 285 278 277 277 274 268 263 263 264 264 265 268 271 272 270 265 259 252 245 239 237 240 244 245 241 234 233 233
291 303 305 259 150 301 317 300 287 302 300 300 302 296 299 22 29 1 355 346 347 354 349 343 341 337 332 332 332 330 328 327 327 327 326 324 323 323 324 324 323 323 323 322 319 319 318 315 318 324 324 324 325 324 321 317 313 309 306 310 313 312 309 300 289 286 288 290 291 287 278 273 271 271 271 269 265 262 261 262 263 266 270 272 269 261 253 245 237 233 233 236 241 241 236 233 231